St. Cloud, MN

7:38 AM CDT on August 17, 2017 (GMT -0500)
Saint Cloud Regional

Weather History for KSTC - January, 2013

Change the Weather History Date:

Friday, January 18, 2013

  Actual Average Record
Temperature  
Mean Temperature 26 °F 11 °F  
Max Temperature 38 °F 21 °F 48 °F (1981)
Min Temperature 14 °F 1 °F -34 °F (1994)
Degree Days  
Heating Degree Days 39 54  
Month to date heating degree days 869 965  
Since 1 July heating degree days 4142 4412  
Cooling Degree Days 0 0  
Month to date cooling degree days 0 0  
Year to date cooling degree days 0 0  
Moisture  
Dew Point 16 °F    
Average Humidity 80    
Maximum Humidity 96    
Minimum Humidity 64    
Precipitation  
Precipitation 0.03 in 0.02 in 0.70 in (1922)
Month to date precipitation 0.28 0.41  
Year to date precipitation 0.28 0.41  
Snow  
Snow 0.50 in 0.30 in 5.70 in (2014)
Month to date snowfall 1.1 5.3  
Since 1 July snowfall 19.3 23.9  
Snow Depth 4.00 in    
Sea Level Pressure  
Sea Level Pressure 29.97 in    
Wind  
Wind Speed 6 mph (SE)    
Max Wind Speed 14 mph    
Max Gust Speed 18 mph    
Visibility 8 miles    
Events Snow    
T = Trace of Precipitation, MM = Missing Value Source: NWS Daily Summary

Daily Weather History Graph

Daily Weather History Graph

Search for Another Location

Airport or City:

Trip Planner

Search our weather history database for the weather conditions in past years. The results will help you decide how hot, cold, wet, or windy it might be!

Date:

Astronomy

Jan. 18, 2013 Rise Set
Actual Time 7:50 AM CST 5:03 PM CST
Civil Twilight 7:17 AM CST 5:36 PM CST
Nautical Twilight 6:41 AM CST 6:12 PM CST
Astronomical Twilight 6:05 AM CST 6:48 PM CST
Moon 11:04 AM CST (1/18) 12:18 AM CST (1/18)
Length of Visible Light 10h 18m
Length of Day
9h 12m
Waxing Crescent, 47% of the Moon is Illuminated
Jan 18
Waxing Crescent
Jan 18
First Quarter
Jan 26
Full
Feb 3
Last Quarter
Feb 10
New

Hourly Weather History & Observations

Time (CST) Temp. Windchill Dew Point Humidity Pressure Visibility Wind Dir Wind Speed Gust Speed Precip Events Conditions
12:29 AM 14.0 °F 6.5 °F 6.8 °F 73% 30.21 in 2.0 mi ESE 4.6 mph - 0.00 in Snow Light Snow
12:37 AM 14.0 °F 6.5 °F 8.6 °F 79% 30.21 in 1.5 mi SE 4.6 mph - 0.00 in Snow Light Snow
12:53 AM 14.0 °F 3.9 °F 9.0 °F 80% 30.30 in 1.8 mi SE 6.9 mph - 0.01 in Snow Light Snow
1:31 AM 14.0 °F 5.1 °F 10.4 °F 86% 30.16 in 3.0 mi East 5.8 mph - 0.01 in Snow Light Snow
1:42 AM 14.0 °F 5.1 °F 10.4 °F 86% 30.16 in 1.8 mi East 5.8 mph - 0.01 in Snow Light Snow
1:53 AM 14.0 °F 3.9 °F 10.0 °F 84% 30.24 in 1.0 mi ESE 6.9 mph - 0.02 in Snow Light Snow
2:10 AM 14.0 °F 3.9 °F 10.4 °F 86% 30.13 in 2.0 mi ESE 6.9 mph - 0.01 in Snow Light Snow
2:20 AM 15.8 °F 4.2 °F 10.4 °F 79% 30.13 in 4.0 mi ESE 9.2 mph - 0.01 in Snow Light Snow
2:30 AM 15.8 °F 7.2 °F 10.4 °F 79% 30.13 in 8.0 mi ESE 5.8 mph - 0.01 in Snow Light Snow
2:53 AM 15.1 °F 4.2 °F 10.9 °F 84% 30.20 in 10.0 mi ESE 8.1 mph - 0.01 in   Overcast
3:53 AM 16.0 °F 5.3 °F 12.0 °F 84% 30.14 in 10.0 mi SE 8.1 mph - N/A   Overcast
4:29 AM 15.8 °F 3.4 °F 12.2 °F 86% 30.00 in 10.0 mi SE 10.4 mph - N/A   Overcast
4:53 AM 17.1 °F 3.6 °F 12.0 °F 81% 30.06 in 10.0 mi SE 12.7 mph - N/A   Overcast
5:53 AM 17.1 °F 5.0 °F 12.0 °F 81% 30.01 in 10.0 mi SE 10.4 mph - N/A   Partly Cloudy
6:07 AM 17.6 °F 6.4 °F 12.2 °F 79% 29.91 in 10.0 mi SE 9.2 mph - N/A   Mostly Cloudy
6:53 AM 19.0 °F 11.1 °F 14.0 °F 81% 29.97 in 10.0 mi SE 5.8 mph - N/A   Overcast
7:36 AM 19.4 °F 11.5 °F 14.0 °F 80% 29.85 in 10.0 mi SE 5.8 mph - N/A   Mostly Cloudy
7:53 AM 19.0 °F 12.3 °F 15.1 °F 85% 29.93 in 10.0 mi SE 4.6 mph - N/A   Mostly Cloudy
8:53 AM 21.0 °F 12.4 °F 16.0 °F 81% 29.89 in 10.0 mi ESE 6.9 mph - N/A   Clear
9:53 AM 23.0 °F 17.0 °F 18.0 °F 81% 29.88 in 10.0 mi ESE 4.6 mph - N/A   Scattered Clouds
10:53 AM 28.0 °F 22.8 °F 21.9 °F 78% 29.84 in 8.0 mi SE 4.6 mph - N/A   Mostly Cloudy
11:53 AM 33.1 °F - 25.0 °F 72% 29.81 in 9.0 mi Calm Calm - N/A   Clear
12:53 PM 36.0 °F 30.3 °F 26.1 °F 67% 29.77 in 10.0 mi WSW 6.9 mph - N/A   Clear
1:53 PM 37.0 °F 31.0 °F 26.1 °F 65% 29.77 in 10.0 mi West 8.1 mph - N/A   Clear
2:53 PM 37.0 °F 31.6 °F 26.1 °F 65% 29.77 in 10.0 mi WNW 6.9 mph - N/A   Clear
3:53 PM 34.0 °F 28.8 °F 25.0 °F 70% 29.78 in 10.0 mi West 5.8 mph - N/A   Clear
4:53 PM 33.1 °F 25.5 °F 24.1 °F 70% 29.80 in 10.0 mi West 9.2 mph - N/A   Clear
5:53 PM 30.0 °F 25.2 °F 23.0 °F 75% 29.82 in 10.0 mi SW 4.6 mph - N/A   Clear
6:53 PM 26.1 °F 21.9 °F 21.0 °F 81% 29.83 in 10.0 mi West 3.5 mph - N/A   Clear
7:53 PM 23.0 °F - 19.9 °F 88% 29.83 in 10.0 mi Calm Calm - N/A   Clear
8:53 PM 23.0 °F - 19.0 °F 85% 29.82 in 8.0 mi Calm Calm - N/A   Clear
9:53 PM 23.0 °F 14.7 °F 21.0 °F 92% 29.84 in 10.0 mi West 6.9 mph - N/A   Clear
10:53 PM 26.1 °F - 21.9 °F 84% 29.83 in 10.0 mi Calm Calm - N/A   Clear
11:53 PM 23.0 °F 18.4 °F 21.0 °F 92% 29.82 in 9.0 mi South 3.5 mph - N/A   Clear